Wind_Speed
15 15 15 16 16 16 15 15 15 15 15 15 15 15 16 16 16 16 16 16 16 16 15 15 15 14 14 14 14 15 16 16 17 18 18 18 18 18 18 17 17 17 17
16 16 15 16 16 16 16 15 15 15 15 15 16 16 16 16 17 17 17 18 18 18 18 18 18 17 17 17 17 17 17 18 18 19 20 20 20 20 20 19 19 19 19
17 17 16 16 16 16 16 16 16 16 16 16 16 16 16 17 17 17 18 18 18 19 19 19 19 19 19 18 18 18 19 19 20 20 21 21 21 21 21 21 20 20 20
18 17 17 17 17 17 16 16 16 16 16 16 16 16 16 17 17 17 17 17 18 18 18 18 19 19 19 19 19 19 20 20 21 21 22 22 23 23 22 22 22 21 21
19 18 17 17 17 16 16 16 16 16 16 15 15 15 16 16 17 17 17 17 17 17 17 17 18 18 19 19 19 19 20 20 21 22 22 23 23 23 23 23 22 22 21
20 19 18 18 17 17 16 16 16 16 16 16 16 16 16 17 17 17 18 18 18 17 17 17 18 18 19 19 19 19 20 20 21 22 22 23 23 24 24 23 22 22 21
21 20 20 19 19 18 17 17 17 17 17 18 18 18 18 19 19 19 19 19 19 19 19 19 19 19 19 19 19 19 20 20 21 21 22 23 23 23 23 23 22 22 22
22 22 22 21 21 20 19 19 19 19 19 20 20 20 20 20 21 21 21 21 20 20 20 20 20 19 19 19 19 20 20 21 21 21 22 22 23 23 23 23 23 23 23
24 24 24 24 23 23 22 21 21 21 21 21 21 21 21 22 22 21 21 21 20 20 20 20 20 20 20 20 20 20 21 21 21 22 22 23 23 24 24 25 25 25 25
26 26 26 26 26 25 24 24 23 23 22 22 22 22 22 22 21 21 21 20 20 20 19 19 19 19 19 19 20 20 21 21 22 22 23 23 24 25 25 26 27 27 27
29 29 29 29 28 28 27 26 26 25 24 23 23 23 22 21 21 20 20 20 20 19 19 19 19 19 19 19 20 20 21 21 22 23 23 24 25 26 26 27 28 29 29
31 31 31 31 30 30 29 28 27 26 25 25 24 23 22 22 21 21 20 20 19 19 19 19 19 19 19 19 20 20 21 21 22 23 23 24 25 26 27 27 28 29 29
32 32 32 32 31 31 31 30 29 28 27 26 25 24 23 23 22 21 21 20 20 19 19 19 19 19 19 20 20 21 21 22 23 23 24 25 25 26 27 27 28 28 29
32 32 32 33 32 32 32 32 30 29 28 28 27 26 25 24 24 23 22 21 20 20 20 20 20 20 20 20 21 21 22 23 23 24 24 25 26 26 27 28 28 28 29
32 32 33 33 33 33 33 32 32 31 31 30 29 28 27 26 25 24 23 23 22 21 21 21 21 21 21 22 22 22 23 23 24 24 25 26 26 27 27 28 28 29 29
32 33 34 34 34 34 34 34 33 33 33 32 31 30 29 29 28 26 25 24 24 24 23 23 23 23 23 24 24 24 24 25 26 26 26 27 28 28 28 29 29 30 30
33 34 34 35 35 35 35 35 35 35 35 34 33 33 32 31 30 29 28 27 27 26 25 25 25 25 25 26 26 26 26 27 27 27 28 28 29 29 29 30 30 31 31
35 35 36 36 36 36 37 37 37 37 37 36 36 35 34 33 32 31 30 30 30 29 28 28 28 28 28 28 28 28 28 29 29 29 30 30 30 31 31 31 32 32 32
36 36 37 37 37 38 39 39 40 39 39 38 37 37 36 36 35 35 34 33 33 32 32 31 32 32 31 31 31 31 31 31 31 31 32 32 32 33 33 33 33 33 33
36 36 37 38 38 39 40 41 41 41 41 41 40 39 39 39 39 38 37 37 36 36 35 35 36 35 34 34 34 34 34 34 34 34 34 34 34 34 34 34 34 34 34
37 37 38 39 39 40 41 42 43 43 43 43 43 42 42 41 41 40 40 40 39 39 39 39 39 38 38 38 38 38 37 37 37 37 37 37 37 37 37 36 36 36 36
38 38 39 39 40 41 42 44 44 45 45 45 45 44 44 43 43 43 43 43 43 43 43 43 42 42 42 42 42 41 40 40 39 39 39 39 39 39 39 39 39 40 40
39 39 39 40 41 42 43 44 45 46 45 45 45 45 45 46 46 46 46 46 46 46 46 46 46 45 45 45 45 45 43 42 42 42 41 42 42 42 42 43 43 43 43
40 40 40 40 41 42 43 44 45 45 46 46 47 47 48 49 49 49 48 49 49 49 49 49 49 49 49 48 48 48 47 46 45 44 44 45 45 45 45 45 46 46 46
40 40 39 40 41 42 43 44 45 45 46 46 48 49 50 50 51 51 51 52 52 52 52 53 52 52 52 52 51 50 50 49 48 47 47 47 48 48 48 48 48 49 49
39 39 39 39 40 41 42 43 44 45 46 47 48 49 51 52 53 54 54 55 55 56 55 56 56 55 55 54 53 52 52 52 51 51 50 50 51 51 51 51 51 52 51
Wind_Direction
246 250 250 251 252 252 253 255 258 262 266 268 269 270 271 272 273 275 276 276 277 278 279 279 280 279 279 279 280 280 280 281 282 284 285 285 286 286 287 288 289 291 293
245 248 249 252 253 254 255 256 259 262 266 268 270 271 272 273 274 275 276 277 278 278 278 278 279 279 280 281 282 282 283 284 284 285 286 287 287 288 288 289 290 292 292
244 247 250 252 255 257 259 260 261 263 264 267 269 271 272 274 276 278 279 280 280 280 280 280 280 280 281 283 284 284 285 285 286 287 288 288 289 289 289 290 291 292 292
246 249 251 254 256 259 262 264 264 264 265 267 269 272 274 276 278 280 281 282 282 282 282 283 284 284 284 284 285 286 286 286 287 288 289 290 291 290 290 290 291 291 292
248 251 254 256 258 259 262 264 266 267 268 269 271 274 276 278 280 282 283 284 286 286 286 286 287 287 288 287 287 287 287 287 288 289 290 291 291 291 290 290 290 290 290
248 252 256 258 259 260 261 264 267 269 271 272 274 276 279 280 282 284 285 287 287 287 287 288 289 290 291 290 289 289 289 289 288 288 289 290 290 290 289 288 288 289 289
249 253 257 260 261 261 261 264 268 270 273 274 276 278 281 282 284 284 285 287 287 287 287 288 289 290 290 291 291 290 289 289 289 288 289 289 289 288 287 286 286 286 287
248 253 257 260 262 263 264 266 269 271 273 275 278 279 281 282 283 284 285 285 286 286 287 288 289 289 290 290 291 291 291 290 290 289 289 289 288 287 286 285 284 284 285
246 251 255 259 261 263 265 267 268 271 273 275 277 279 280 281 282 283 284 285 286 286 287 288 288 289 289 290 291 292 292 292 291 291 290 289 288 287 285 284 284 284 285
245 249 253 257 260 263 265 267 268 270 272 275 276 278 280 281 282 283 284 285 286 287 287 288 288 289 290 291 292 292 292 292 292 292 290 289 288 287 285 284 284 284 285
244 248 251 255 258 262 264 266 268 270 271 273 274 276 278 279 280 281 283 284 285 287 287 288 288 289 290 291 292 292 292 292 292 292 291 291 290 289 288 287 286 286 286
243 247 250 253 257 260 263 265 267 269 270 270 272 273 275 276 278 280 281 282 283 284 286 287 288 289 290 291 292 292 292 292 292 292 292 292 292 292 292 290 289 289 289
243 247 250 253 256 259 261 263 265 266 268 269 270 271 272 274 276 278 279 280 281 282 284 286 288 289 291 292 292 293 293 293 294 294 293 293 292 292 292 292 291 290 290
243 246 248 251 253 256 258 261 262 264 266 267 269 270 271 272 274 275 276 277 278 280 282 284 286 288 290 291 292 293 294 294 294 294 294 294 293 293 292 292 292 291 291
243 245 247 249 251 254 256 259 261 263 264 266 268 269 270 271 272 273 273 274 276 278 280 283 285 287 289 290 292 292 293 293 294 295 295 294 294 293 293 293 292 292 292
243 244 246 248 251 253 256 258 260 263 264 265 267 268 269 270 271 272 271 272 273 275 278 281 283 286 287 289 290 292 292 293 294 295 295 294 293 293 293 292 292 292 292
242 245 247 249 252 254 257 259 260 262 264 265 266 267 268 269 270 270 270 270 271 273 275 278 281 283 285 287 289 291 292 293 294 294 295 294 294 293 293 292 292 292 291
243 245 248 250 253 256 257 259 261 262 264 265 266 267 268 269 269 269 269 268 269 271 274 276 278 281 283 285 287 289 290 291 292 293 294 294 293 293 292 292 291 291 290
243 246 249 252 254 257 258 260 261 263 265 266 267 267 267 267 267 267 267 268 269 271 273 275 277 279 281 283 285 287 289 290 291 291 292 292 292 292 291 291 290 289 289
244 247 250 253 255 257 259 261 262 264 265 266 266 266 265 265 265 266 267 268 269 270 272 273 275 278 280 282 283 285 286 287 289 290 290 291 290 290 290 290 289 288 288
246 248 251 253 256 258 259 261 262 263 263 264 264 265 265 265 265 266 267 268 269 269 270 272 274 276 278 279 281 283 284 285 286 287 288 289 289 289 289 288 288 287 287
248 250 252 255 257 258 259 260 261 262 263 264 264 264 265 265 266 266 267 267 267 268 269 271 273 274 276 278 279 281 283 284 284 285 286 286 286 286 287 287 287 286 285
251 253 255 256 257 258 259 260 261 262 263 264 264 264 264 264 264 265 265 266 267 268 269 270 272 273 275 276 278 279 281 282 281 283 284 284 284 284 285 285 285 284 283
256 257 258 259 259 260 261 261 262 262 263 263 263 263 263 264 265 265 266 266 267 268 269 270 271 272 274 275 276 278 279 279 280 281 282 283 283 284 283 283 283 282 281
257 259 259 260 260 261 262 263 263 263 263 263 264 264 264 264 264 265 265 266 266 268 268 269 270 271 272 273 274 276 277 278 280 280 281 282 283 283 282 282 283 282 281
257 259 260 261 261 262 263 264 264 265 265 265 265 265 265 265 265 265 265 265 266 266 267 268 268 269 270 271 272 273 275 277 278 279 280 281 282 282 282 282 283 281 280
Height
5883 5884 5885 5886 5887 5887 5888 5889 5889 5889 5890 5890 5890 5890 5889 5889 5889 5888 5888 5888 5887 5887 5886 5886 5885 5885 5884 5884 5883 5883 5882 5882 5881 5881 5880 5879 5878 5878 5877 5876 5875 5874 5873
5881 5882 5882 5884 5885 5885 5886 5887 5887 5887 5888 5888 5888 5887 5887 5887 5886 5886 5886 5885 5885 5884 5884 5883 5883 5882 5882 5881 5881 5880 5880 5879 5879 5878 5877 5877 5876 5875 5874 5873 5873 5872 5871
5878 5879 5880 5881 5882 5883 5884 5885 5885 5885 5885 5885 5885 5885 5885 5884 5884 5884 5883 5883 5882 5882 5881 5881 5880 5879 5879 5879 5878 5878 5877 5877 5876 5875 5875 5874 5873 5872 5871 5871 5870 5869 5868
5875 5876 5878 5879 5880 5881 5882 5882 5883 5883 5883 5883 5883 5882 5882 5882 5881 5881 5881 5880 5880 5879 5878 5878 5877 5877 5876 5876 5875 5875 5874 5874 5873 5872 5872 5871 5870 5869 5868 5868 5867 5866 5865
5872 5873 5875 5876 5877 5878 5879 5880 5880 5880 5880 5880 5880 5880 5879 5879 5879 5878 5878 5877 5877 5876 5875 5875 5874 5874 5873 5873 5872 5872 5871 5870 5870 5869 5868 5867 5867 5866 5865 5864 5863 5862 5861
5869 5870 5872 5873 5874 5875 5876 5876 5877 5877 5877 5877 5877 5877 5877 5876 5876 5875 5875 5874 5874 5873 5872 5872 5871 5871 5870 5869 5869 5868 5867 5867 5866 5865 5864 5864 5863 5862 5861 5860 5859 5858 5858
5866 5867 5868 5869 5870 5871 5872 5873 5874 5874 5874 5874 5874 5874 5874 5873 5873 5872 5872 5871 5871 5870 5869 5869 5868 5868 5867 5866 5866 5865 5864 5863 5863 5862 5861 5860 5859 5858 5857 5857 5856 5855 5854
5862 5864 5865 5866 5867 5868 5869 5869 5870 5870 5870 5870 5870 5870 5870 5870 5869 5869 5868 5868 5867 5867 5866 5865 5865 5864 5864 5863 5862 5861 5861 5860 5859 5858 5857 5856 5855 5854 5854 5853 5852 5851 5850
5859 5860 5861 5862 5863 5864 5865 5865 5866 5866 5866 5866 5866 5866 5866 5866 5866 5865 5865 5864 5864 5863 5862 5862 5861 5860 5860 5859 5859 5858 5857 5856 5855 5854 5853 5852 5851 5850 5849 5849 5848 5847 5845
5855 5856 5857 5858 5858 5859 5860 5861 5861 5862 5862 5862 5862 5862 5862 5862 5862 5861 5861 5860 5860 5859 5858 5858 5857 5856 5856 5855 5855 5854 5853 5852 5851 5850 5849 5848 5847 5846 5845 5844 5843 5842 5841
5850 5851 5852 5853 5854 5855 5856 5857 5857 5858 5858 5858 5858 5858 5858 5858 5858 5857 5857 5857 5856 5855 5855 5854 5853 5853 5852 5851 5850 5850 5849 5848 5847 5846 5845 5844 5843 5842 5840 5839 5838 5837 5835
5844 5846 5847 5848 5849 5850 5851 5852 5852 5853 5853 5854 5854 5854 5854 5854 5853 5853 5853 5853 5852 5851 5851 5850 5849 5849 5848 5847 5846 5845 5845 5844 5843 5842 5841 5839 5838 5837 5835 5834 5833 5831 5830
5839 5841 5842 5843 5844 5845 5846 5847 5848 5848 5849 5849 5849 5849 5849 5849 5849 5849 5849 5848 5848 5847 5847 5846 5845 5845 5844 5843 5842 5841 5840 5839 5838 5837 5836 5835 5833 5832 5830 5829 5827 5826 5825
5834 5836 5837 5838 5839 5840 5841 5842 5843 5843 5844 5844 5844 5845 5845 5845 5845 5845 5844 5844 5844 5843 5842 5842 5841 5840 5840 5839 5838 5837 5836 5835 5834 5832 5831 5830 5828 5827 5825 5824 5822 5821 5819
5828 5830 5831 5833 5834 5835 5836 5837 5837 5838 5838 5839 5839 5840 5840 5840 5840 5840 5840 5840 5839 5839 5838 5837 5837 5836 5835 5834 5833 5832 5831 5830 5829 5827 5826 5825 5823 5821 5820 5818 5817 5815 5813
5822 5824 5825 5827 5828 5829 5831 5832 5832 5833 5833 5834 5834 5835 5835 5835 5835 5835 5835 5835 5834 5833 5833 5832 5832 5831 5830 5829 5828 5827 5826 5825 5823 5822 5821 5819 5818 5816 5814 5812 5811 5809 5807
5816 5818 5820 5821 5823 5824 5825 5826 5827 5827 5827 5828 5829 5829 5829 5829 5829 5829 5829 5829 5828 5828 5827 5827 5826 5825 5825 5824 5823 5821 5820 5819 5818 5816 5815 5813 5812 5810 5808 5806 5804 5803 5801
5810 5812 5813 5815 5817 5818 5819 5820 5820 5821 5821 5822 5823 5823 5823 5823 5823 5823 5823 5823 5822 5822 5821 5821 5820 5819 5818 5817 5817 5815 5814 5813 5811 5810 5808 5807 5805 5804 5802 5800 5798 5796 5794
5804 5806 5807 5809 5811 5812 5812 5813 5814 5814 5815 5816 5816 5816 5816 5816 5816 5816 5816 5816 5815 5815 5815 5814 5814 5813 5812 5811 5810 5809 5808 5806 5805 5803 5802 5800 5798 5796 5795 5793 5791 5789 5787
5797 5799 5801 5802 5804 5804 5805 5806 5807 5807 5808 5808 5809 5809 5809 5809 5808 5809 5809 5808 5808 5808 5808 5807 5806 5805 5805 5804 5802 5801 5800 5799 5798 5796 5794 5792 5791 5789 5787 5785 5783 5781 5779
5790 5793 5794 5795 5796 5797 5798 5798 5799 5800 5800 5800 5800 5800 5800 5801 5801 5801 5801 5800 5800 5800 5799 5799 5798 5797 5796 5795 5794 5793 5792 5791 5790 5788 5786 5785 5783 5781 5779 5777 5775 5774 5772
5783 5785 5787 5788 5789 5789 5790 5790 5791 5791 5791 5792 5792 5792 5792 5792 5792 5792 5792 5791 5791 5790 5790 5790 5789 5788 5788 5787 5785 5784 5784 5783 5782 5779 5778 5776 5774 5772 5771 5769 5767 5765 5763
5775 5777 5778 5779 5780 5781 5781 5781 5782 5782 5783 5783 5783 5783 5783 5782 5782 5782 5781 5781 5780 5780 5780 5780 5779 5778 5778 5777 5775 5775 5775 5774 5772 5771 5769 5767 5765 5763 5761 5759 5757 5755 5753
5766 5768 5769 5770 5771 5772 5772 5773 5773 5773 5774 5774 5774 5773 5772 5772 5771 5771 5771 5770 5770 5769 5769 5769 5768 5768 5767 5766 5765 5764 5764 5763 5762 5761 5759 5757 5755 5753 5751 5748 5746 5744 5742
5757 5759 5760 5761 5762 5762 5763 5763 5763 5764 5764 5764 5763 5763 5762 5761 5761 5760 5760 5759 5759 5758 5758 5757 5757 5756 5755 5755 5754 5753 5752 5751 5750 5749 5748 5747 5744 5742 5739 5737 5735 5732 5730
5748 5750 5751 5751 5752 5753 5753 5753 5753 5753 5753 5753 5752 5752 5751 5750 5749 5748 5747 5747 5746 5746 5745 5744 5744 5743 5743 5742 5742 5742 5741 5740 5739 5737 5736 5735 5733 5730 5728 5725 5723 5720 5718